Location: Lawrence
(38.9720°N, 95.2350°W)
Time: 23:17:22
(UTC-05:00)

ISS - Visible Passes

Search period start: 30 April 2017 00:00
Search period end: 10 May 2017 00:00
Orbit: 401 x 409 km, 51.6° (Epoch: 01 May)

Date Brightness Start Highest point End Pass type
(mag) Time Alt. Az. Time Alt. Az. Time Alt. Az.
02 May -1.1 05:44:17 10° SSE 05:46:08 14° SE 05:47:59 10° E visible
04 May -2.6 05:35:10 10° SSW 05:38:11 36° SE 05:41:14 10° ENE visible
05 May -1.6 04:44:52 15° SSE 04:46:14 18° SE 04:48:35 10° E visible
06 May -3.8 05:27:34 14° SW 05:30:20 83° NW 05:33:37 10° NE visible
07 May -3.2 04:37:32 38° S 04:38:15 47° SE 04:41:25 10° ENE visible
08 May -1.5 03:47:24 19° E 03:47:24 19° E 03:48:55 10° ENE visible
08 May -2.7 05:20:03 13° W 05:22:36 35° NNW 05:25:39 10° NE visible
09 May -3.7 04:29:50 53° W 04:30:22 64° NW 04:33:37 10° NE visible
